GFSSW_925_thetae_000.txt.gz
Theta_e
312 312 311 310 311 311 310 310 310 311 312 313 314 314 313 313 315 318 316 314 313 313 313 314 318 315 316 316 316 317 316 315 315 316 315 315 315 317 317 317 318 318 322 333 334
311 311 311 312 312 311 311 310 311 311 313 314 314 314 315 314 318 315 315 314 314 314 318 317 317 317 316 316 317 318 318 316 315 315 316 316 315 316 316 317 318 320 321 327 331
312 311 311 311 311 311 311 311 311 312 314 315 314 315 314 315 322 317 315 315 315 315 318 318 318 318 317 317 318 318 316 316 316 316 315 316 316 317 316 316 319 319 322 323 326
312 312 311 311 311 311 311 311 312 314 315 316 315 315 315 317 320 317 317 315 315 315 318 318 319 319 318 318 318 318 317 317 318 317 317 318 318 318 317 317 318 319 320 322 324
314 313 312 311 311 312 312 313 314 315 315 316 315 315 315 322 319 318 318 319 318 318 318 318 319 320 319 319 320 319 319 319 319 319 319 318 318 318 317 318 318 318 321 322 322
315 315 314 313 313 313 314 315 316 316 314 314 314 314 321 319 318 319 319 320 319 320 319 319 320 320 321 321 321 320 320 320 320 320 319 319 318 317 317 318 318 318 320 320 321
315 315 315 314 315 316 316 317 318 317 316 316 316 317 322 318 319 320 320 319 319 319 318 318 319 321 322 323 320 320 321 322 321 318 316 318 317 316 319 319 318 317 318 319 319
315 315 315 315 317 318 319 319 318 317 316 316 317 320 320 318 319 319 320 320 319 319 318 317 319 320 322 320 322 321 321 318 318 318 318 316 316 318 318 317 317 317 318 318 318
315 315 315 317 317 318 319 318 317 316 316 317 320 324 320 318 319 319 319 320 320 321 320 319 319 320 322 323 322 320 319 319 320 319 317 317 317 317 319 318 318 318 318 318 319
315 315 316 317 317 316 318 317 316 317 316 317 321 321 319 319 318 319 319 320 320 321 322 321 321 322 320 320 320 320 320 321 321 320 319 320 320 320 320 319 319 319 319 318 318
315 315 316 318 318 319 318 319 321 323 319 320 319 319 318 318 318 317 316 319 321 321 320 319 323 320 319 319 319 319 320 321 321 320 320 320 321 320 319 318 318 318 319 319 318
313 315 316 316 317 318 320 325 324 325 319 317 317 317 316 317 319 318 316 320 319 320 318 319 323 319 318 319 319 318 320 321 320 320 321 321 321 320 318 318 317 317 318 318 318
312 314 315 316 317 324 324 323 324 326 327 317 317 317 317 317 317 317 316 317 318 318 318 318 321 317 318 319 319 318 321 320 320 321 322 321 321 321 318 317 317 317 318 317 317
313 311 315 315 318 324 324 323 327 327 329 319 319 319 317 317 319 317 315 317 320 318 317 319 318 317 318 319 318 319 320 320 321 323 323 322 321 319 319 318 317 318 319 318 318
316 312 316 321 325 323 324 322 325 333 341 320 318 317 318 317 317 318 317 318 319 318 318 322 318 316 318 318 318 320 319 321 323 324 323 322 321 321 319 318 318 319 319 319 318
316 311 317 321 323 322 320 324 331 344 339 321 318 319 319 319 318 318 319 318 317 317 317 316 316 317 317 317 319 320 322 323 325 323 331 325 324 322 320 319 318 318 318 318 318
316 318 321 324 327 320 321 331 336 339 322 321 321 319 319 319 319 318 319 321 321 324 324 321 319 318 317 320 321 321 323 332 338 340 336 323 322 323 322 320 318 317 317 318 317
315 324 322 324 324 320 329 332 333 324 323 320 319 318 320 319 320 319 321 322 320 321 323 324 327 319 319 319 320 321 322 332 331 331 328 321 322 321 320 319 317 317 317 317 318
319 325 322 320 322 325 330 338 329 323 320 320 319 320 322 320 318 320 321 320 319 319 322 325 324 321 319 318 319 321 325 321 324 327 327 325 323 323 322 319 318 319 318 319 318
326 325 323 318 320 330 340 327 322 318 319 319 321 319 322 321 320 321 321 319 319 319 319 322 324 322 321 321 321 321 321 325 329 332 328 323 324 324 323 323 321 321 320 320 319
329 329 322 315 322 329 338 323 318 316 318 321 321 320 320 320 321 321 321 319 319 319 319 322 324 324 322 324 323 321 323 325 323 326 329 330 324 323 322 322 322 320 320 319 319
326 332 323 317 330 328 325 320 312 318 318 320 320 321 322 321 323 322 321 321 318 318 321 322 322 326 324 322 320 319 322 322 328 327 326 328 326 321 323 322 321 321 319 318 317
325 325 324 324 335 333 320 319 319 319 320 320 321 320 320 322 324 322 321 320 319 318 321 320 325 325 323 323 321 322 321 321 323 323 325 327 325 321 322 322 321 319 318 317 316
324 331 329 326 324 324 323 322 321 319 319 320 320 320 321 322 322 322 321 321 319 319 316 317 320 324 326 325 322 323 321 321 322 324 324 324 324 322 321 320 319 319 316 315 315
322 324 322 332 328 324 323 322 323 323 320 319 321 321 321 322 321 320 320 320 321 319 319 320 324 322 321 320 320 320 320 320 321 321 322 321 321 320 319 319 317 316 316 315 314
327 325 321 320 320 322 318 321 321 321 319 321 320 320 320 321 321 322 321 321 321 320 322 321 322 320 321 320 320 319 319 320 319 318 319 320 321 319 317 316 316 316 316 316 315
319 317 323 320 322 325 323 320 319 319 320 318 319 321 321 321 321 320 319 319 320 321 322 322 321 318 322 318 318 319 318 319 319 318 319 319 318 317 316 316 316 316 315 314 313

GFSSW_925_thetae_003.txt.gz
Theta_e
313 313 313 313 312 311 311 310 310 311 312 313 313 313 314 314 316 318 314 314 314 313 313 315 318 317 317 311 313 312 309 308 310 311 312 311 311 315 315 315 316 316 327 328 324
312 313 313 313 312 311 311 310 311 311 313 313 313 314 314 314 318 316 315 315 314 314 314 318 317 315 311 314 312 311 307 311 312 312 310 310 310 314 313 311 315 317 325 327 334
312 311 311 312 312 311 311 311 311 312 313 314 313 314 314 315 323 316 316 314 313 314 315 317 318 317 316 316 314 313 312 314 314 314 312 312 314 314 314 313 315 316 319 326 330
312 312 311 311 311 311 311 312 313 313 315 315 314 314 314 316 316 317 318 317 315 316 317 317 316 317 316 316 317 314 315 316 316 315 315 316 315 315 315 314 315 315 317 319 321
314 313 312 311 311 312 312 313 314 315 315 315 314 314 314 322 318 318 319 319 319 319 318 318 318 318 317 318 318 317 317 318 316 316 315 317 315 315 315 313 315 316 319 319 319
315 314 313 312 313 314 314 315 315 314 314 315 314 314 316 320 318 319 319 319 319 319 318 317 318 318 319 320 319 319 319 319 317 317 317 316 315 315 313 312 314 316 317 318 317
315 315 314 314 315 316 316 316 316 316 314 314 314 315 323 317 318 319 319 319 319 319 318 318 318 318 319 321 319 319 318 317 318 316 315 314 313 312 313 313 314 314 314 314 314
314 314 314 315 317 318 318 317 317 316 315 315 315 319 319 318 319 319 319 319 320 320 318 318 318 318 320 319 320 320 318 317 317 316 315 313 312 312 312 314 313 312 312 314 314
315 315 316 317 317 318 318 317 316 316 316 316 316 322 318 318 319 319 320 319 320 320 320 320 319 318 320 320 319 316 316 318 318 314 316 314 314 315 314 312 311 311 311 312 312
315 315 316 317 317 317 317 317 316 315 316 315 318 321 318 318 318 318 317 317 319 319 320 320 317 318 314 314 316 317 316 318 318 317 316 315 316 314 314 315 311 311 313 313 313
315 316 317 317 317 317 317 320 317 319 320 316 315 317 317 317 318 316 316 316 318 319 319 316 317 316 316 317 318 316 315 316 317 317 317 316 315 315 314 311 311 311 311 312 313
314 315 316 317 317 319 323 325 324 324 320 317 316 316 316 316 317 315 315 316 317 317 317 315 319 317 316 316 317 316 317 318 318 318 318 317 317 315 313 313 312 312 312 312 312
312 315 316 316 317 324 322 324 324 322 327 317 317 316 316 316 317 315 314 315 318 317 315 315 318 317 317 317 317 316 319 318 319 318 319 318 317 315 314 313 314 314 313 313 312
311 313 315 316 317 324 324 322 325 327 330 317 319 317 317 316 318 317 316 316 320 318 315 317 318 316 316 318 316 317 318 319 319 320 321 319 319 316 314 313 314 314 312 312 313
314 315 315 320 325 324 324 320 324 333 328 319 317 316 317 316 316 317 317 317 316 316 316 318 314 314 317 316 316 318 319 319 320 320 321 320 319 315 314 315 314 313 313 313 312
317 313 317 323 322 322 319 319 329 330 332 319 318 318 319 318 317 317 319 318 317 319 317 315 315 316 315 316 317 318 320 321 323 320 322 320 319 317 318 316 315 314 314 313 312
320 321 319 323 325 318 319 331 330 326 322 320 320 319 318 318 319 318 320 318 319 321 321 321 317 316 318 318 319 318 320 320 321 321 322 320 319 318 318 315 314 313 313 313 313
320 325 323 320 320 319 329 326 329 325 322 319 319 318 320 317 319 319 320 319 318 319 320 323 322 319 318 319 319 319 320 319 325 320 320 319 321 319 316 314 314 314 313 313 313
322 325 323 318 318 324 328 326 322 322 320 320 319 319 321 319 317 320 318 319 318 318 322 323 324 320 318 318 318 320 322 320 319 311 315 320 321 318 316 319 319 316 315 315 315
324 329 320 320 318 329 325 324 319 318 318 319 322 319 322 320 320 320 320 318 319 318 317 322 324 322 321 320 319 319 319 320 316 323 324 321 321 320 320 319 319 317 315 315 315
327 326 319 315 322 327 323 318 317 315 318 320 321 322 321 321 321 321 321 319 318 318 318 321 321 320 320 323 322 319 319 320 323 320 327 326 323 319 320 318 319 317 316 314 313
328 327 318 323 326 324 320 319 313 318 318 319 320 321 321 322 322 322 323 321 318 317 322 319 318 317 321 319 319 318 321 321 323 326 318 317 324 319 317 318 318 318 315 313 311
325 324 323 323 316 315 319 319 319 320 320 321 321 320 320 322 322 322 321 319 317 319 319 318 315 316 319 319 319 321 320 319 318 314 320 322 322 318 318 318 317 313 312 312 312
323 314 323 323 323 321 321 321 320 319 319 320 320 319 321 321 321 320 321 320 318 319 317 316 319 317 319 320 320 320 320 318 318 310 318 319 319 317 316 315 313 312 312 311 311
321 319 319 318 319 320 320 321 322 323 320 319 320 320 320 318 318 319 321 322 320 317 318 318 317 319 319 320 320 320 319 318 319 317 318 318 317 316 314 313 313 313 313 313 312
320 319 320 318 319 319 317 321 321 319 319 321 319 321 320 320 321 322 320 320 320 319 318 319 315 319 319 319 320 318 316 316 316 316 316 316 315 314 311 313 314 313 313 313 312
320 319 319 317 318 314 317 320 320 319 319 318 318 319 315 321 319 319 318 317 318 319 316 316 312 313 322 317 315 313 314 315 315 314 315 315 313 314 315 314 314 313 312 311 311

GFSSW_925_thetae_006.txt.gz
Theta_e
313 313 312 310 312 311 310 310 310 310 312 312 312 313 314 315 317 314 314 314 314 314 314 314 317 317 315 311 310 306 306 307 311 311 311 308 313 313 313 313 314 320 324 325 337
311 312 311 311 311 311 311 310 310 311 311 312 313 313 314 315 317 315 314 313 313 314 314 315 315 316 311 312 311 306 305 312 311 310 311 310 312 312 312 313 314 326 324 327 335
311 311 311 311 311 311 311 310 311 311 312 313 313 313 314 315 318 315 317 316 317 317 317 316 316 316 314 312 313 311 312 313 313 314 312 314 314 312 312 313 315 327 324 328 333
312 311 311 311 311 311 311 311 312 312 314 313 313 313 313 318 314 317 318 319 319 318 318 317 315 316 314 315 314 314 314 315 315 315 315 315 314 314 313 313 314 317 325 326 328
314 313 311 311 311 311 312 312 313 314 315 314 313 313 314 317 317 318 319 319 318 318 316 315 316 316 318 317 317 316 315 315 315 315 315 315 315 314 314 312 312 314 317 319 321
314 313 312 312 312 313 314 314 314 314 315 314 314 314 317 317 318 318 319 318 318 318 317 316 316 316 318 318 318 318 318 317 314 315 315 315 314 315 313 310 312 315 314 314 315
314 314 314 314 314 315 316 316 316 314 314 314 314 315 323 316 318 318 319 319 318 319 317 317 316 316 317 320 318 318 318 315 316 316 315 312 313 312 311 309 312 312 314 314 314
314 314 314 316 317 317 317 317 316 315 315 315 315 316 317 318 319 319 319 319 319 319 319 318 318 316 318 318 319 319 315 316 315 315 315 312 312 312 310 311 311 310 311 313 313
314 315 316 316 317 317 317 316 316 316 315 315 317 320 320 318 318 318 318 318 318 319 319 319 318 317 316 314 312 312 314 315 316 314 314 313 312 312 312 310 311 309 309 310 310
315 316 316 317 317 317 316 316 316 316 318 317 318 318 318 317 317 318 315 315 315 317 318 319 314 314 311 311 314 315 314 314 317 315 315 315 314 313 311 310 310 308 309 311 312
315 316 316 316 316 316 317 320 319 315 318 315 314 316 315 316 317 316 314 315 315 317 318 315 314 314 315 314 315 315 315 317 316 316 317 316 314 314 313 309 309 308 309 309 311
315 316 316 317 317 321 324 322 323 322 319 315 315 315 315 315 316 314 314 315 316 315 313 314 316 316 315 316 315 314 318 317 315 316 318 317 316 310 310 311 309 310 309 310 310
314 315 316 316 317 323 320 323 324 323 323 315 316 315 315 315 316 315 313 314 316 316 313 315 316 315 315 315 315 314 318 317 317 316 317 317 317 313 313 313 312 311 310 310 310
311 315 316 316 317 324 323 321 323 328 319 316 317 317 316 315 317 316 315 316 315 316 315 316 314 314 316 316 315 316 315 317 318 318 320 317 321 316 313 313 314 312 310 310 311
312 314 315 317 324 322 324 319 325 328 321 318 316 316 315 315 315 316 316 316 315 315 314 316 313 314 316 315 315 316 315 318 319 318 319 317 318 315 313 314 313 312 311 310 310
315 316 317 321 320 322 320 320 327 324 328 318 316 318 317 317 316 316 317 316 317 319 317 315 314 314 315 316 317 316 319 319 319 318 320 319 317 316 315 314 313 313 313 312 311
320 319 320 323 323 318 319 325 326 320 322 319 318 317 318 317 318 317 317 317 317 317 318 319 316 315 317 317 316 316 318 319 318 318 320 319 318 316 314 313 313 313 312 312 310
322 323 319 320 321 319 327 321 324 324 320 318 317 317 319 316 317 318 318 317 316 317 319 323 321 319 317 318 318 318 319 317 324 318 319 317 320 317 314 314 312 311 310 312 312
323 325 319 320 318 324 320 319 316 319 317 318 318 318 319 318 316 318 317 318 317 316 320 320 322 319 318 317 318 320 319 318 317 307 314 318 319 315 314 317 315 314 314 313 312
324 327 319 319 319 327 316 317 317 316 317 319 320 319 319 319 319 319 318 318 318 317 316 320 323 320 319 318 318 319 317 319 315 316 325 321 319 319 318 318 317 315 314 312 310
328 318 319 316 326 317 315 314 315 315 317 319 320 321 320 321 321 320 320 318 317 317 317 318 319 319 317 321 321 316 318 319 321 317 322 324 322 316 319 317 317 316 313 310 309
324 316 320 325 319 316 315 317 314 317 318 319 319 319 320 320 321 321 322 320 317 318 320 318 314 316 319 316 317 318 319 318 315 322 315 316 321 317 316 316 314 313 312 311 309
318 319 324 324 312 310 317 318 318 319 318 319 319 319 319 321 320 320 320 318 316 318 318 316 313 314 315 314 316 319 318 317 316 310 316 313 316 315 315 314 313 311 311 310 310
314 314 315 315 316 317 318 319 319 317 318 318 319 319 318 320 318 318 319 319 317 318 315 314 316 315 315 315 317 319 319 317 316 308 318 319 317 315 314 314 313 312 311 310 311
313 314 316 313 315 316 318 320 320 321 318 317 319 319 319 317 316 321 320 319 318 316 317 315 315 316 316 317 318 319 319 319 319 316 315 315 315 314 313 313 312 311 311 312 311
316 317 314 316 319 316 313 318 319 318 319 319 319 319 318 320 319 321 319 318 318 317 317 315 314 315 318 317 318 319 318 316 316 316 314 314 313 314 313 312 313 312 312 312 310
319 318 313 310 312 311 313 318 318 318 318 317 317 316 313 319 317 316 316 316 316 317 313 314 309 308 317 313 314 318 315 314 313 313 312 313 312 314 314 314 313 312 311 311 309

GFSSW_925_thetae_009.txt.gz
Theta_e
313 313 312 312 312 311 310 310 310 310 312 312 312 313 314 315 315 314 312 314 314 314 315 316 316 316 313 310 307 304 304 307 311 310 311 308 312 310 310 318 315 321 322 324 335
312 312 312 312 311 311 311 310 310 310 312 312 312 313 313 315 317 314 316 317 317 318 318 316 314 314 309 311 308 305 305 310 310 310 310 310 311 310 311 316 325 327 324 329 334
311 311 311 311 311 311 310 310 310 312 312 312 313 313 313 317 313 313 318 318 317 317 318 317 315 314 312 311 310 310 311 311 313 310 310 313 314 312 309 315 321 325 324 329 333
313 311 311 311 311 310 310 310 311 312 313 313 313 313 315 318 310 317 318 318 318 317 316 316 314 315 313 315 312 312 313 313 314 313 313 314 313 314 312 312 312 321 320 328 330
313 312 311 310 310 310 311 312 313 314 314 314 313 314 315 315 316 318 318 318 318 318 315 314 314 316 317 317 316 315 314 314 314 314 314 313 314 313 313 311 311 319 322 327 328
313 312 311 311 311 312 313 314 314 314 314 313 314 315 318 315 317 318 318 319 318 319 317 314 315 315 317 318 316 317 316 315 315 314 314 315 314 314 313 310 310 316 321 323 323
314 313 313 313 314 314 314 315 315 314 314 314 315 315 320 316 317 318 319 318 318 318 317 316 315 315 316 318 317 317 317 314 315 315 315 312 312 312 311 309 310 313 315 315 315
314 314 314 315 316 316 316 316 316 315 315 315 315 318 316 317 318 318 317 318 317 318 318 318 318 315 316 316 314 314 311 312 313 314 313 311 311 311 311 309 309 308 311 312 311
315 315 315 316 316 316 316 316 315 315 315 315 318 319 318 317 317 317 315 315 315 317 317 319 317 314 312 311 311 310 313 313 314 313 315 313 311 310 310 309 309 308 308 310 311
315 315 316 316 316 316 316 316 316 315 316 317 318 315 315 315 316 316 315 315 314 315 316 315 311 311 309 310 313 314 313 314 316 314 314 315 311 311 311 308 308 308 308 310 311
315 316 316 316 318 319 320 320 318 313 317 314 314 314 314 315 316 316 314 314 314 313 315 313 313 314 314 313 314 314 315 316 315 314 316 316 313 313 310 309 308 305 307 309 311
315 316 316 316 321 320 322 321 321 320 316 315 314 313 314 315 314 313 314 314 314 314 312 314 315 314 313 314 314 315 316 315 315 314 316 315 315 309 309 310 308 308 309 309 310
314 315 316 316 319 321 320 324 324 324 314 314 314 314 314 315 314 314 313 313 315 314 313 314 316 313 315 313 314 314 316 316 316 315 315 315 316 312 311 311 310 310 308 308 309
313 315 316 316 321 323 321 320 323 326 313 315 315 316 315 314 316 315 314 315 314 314 314 316 312 314 314 315 314 316 314 315 316 318 319 315 318 314 312 313 312 309 308 309 309
312 315 316 317 323 321 323 319 324 324 315 316 315 315 315 315 314 315 316 315 315 317 313 316 312 313 314 315 315 317 315 316 318 317 317 316 315 315 311 313 312 311 311 310 310
316 315 316 320 321 321 320 320 326 320 323 317 316 316 317 315 315 316 315 314 315 317 316 316 313 314 315 315 316 315 317 316 316 316 319 318 316 313 313 313 314 313 312 311 310
319 318 319 321 319 318 320 322 322 317 320 317 317 316 316 315 316 316 316 316 316 314 317 318 318 316 315 317 316 315 316 316 316 316 319 317 315 313 313 313 313 313 312 310 309
321 318 318 321 320 319 323 317 320 321 318 317 316 316 317 315 316 317 317 317 315 316 317 321 318 319 317 317 318 317 317 315 319 317 318 316 318 315 313 313 310 312 311 312 311
323 320 318 320 319 325 315 315 314 316 316 317 317 318 318 318 317 317 317 317 316 315 319 319 320 317 318 317 316 319 318 316 314 305 312 317 317 314 313 315 315 313 312 310 309
325 321 320 318 321 322 313 315 316 315 316 318 318 318 319 319 319 317 318 317 317 316 315 319 322 318 317 317 317 317 316 318 314 314 323 321 319 318 316 317 314 313 311 309 308
328 312 319 323 325 313 312 311 314 314 316 319 319 320 320 320 319 319 319 317 316 316 315 316 317 316 315 318 319 317 317 317 318 316 323 319 320 315 315 314 314 311 310 309 309
318 314 323 321 318 311 313 315 314 317 316 318 318 318 320 319 320 320 320 319 316 317 318 316 313 314 317 314 315 317 317 316 319 319 314 311 318 314 314 312 311 311 310 309 309
317 316 320 319 313 307 315 318 317 317 317 318 318 318 318 319 319 319 319 316 315 317 318 315 312 312 313 312 312 318 317 316 311 308 316 314 315 311 313 312 311 311 310 309 308
311 312 313 311 311 314 317 318 318 317 317 317 317 317 317 318 316 318 319 318 316 317 314 313 314 313 315 313 314 317 317 316 315 312 315 317 316 315 313 313 311 310 309 309 308
310 311 315 312 313 316 317 319 319 319 317 315 318 318 318 316 316 320 318 317 316 315 315 313 316 315 314 314 315 317 317 318 318 316 318 316 315 314 312 313 311 310 310 310 310
315 315 311 314 317 314 311 317 319 318 318 318 318 318 318 319 317 320 319 317 318 316 316 313 311 315 315 315 316 317 316 316 316 316 315 313 313 310 313 312 312 311 311 310 309
316 315 310 306 308 310 311 317 318 317 316 315 316 314 313 318 317 316 314 314 315 316 312 314 308 308 311 311 310 310 311 314 314 312 312 312 310 312 313 312 311 311 310 309 308

GFSSW_925_thetae_012.txt.gz
Theta_e
310 311 311 311 311 311 310 310 310 310 312 312 312 313 313 315 315 313 312 316 316 316 316 316 315 314 312 307 305 303 304 307 309 310 311 308 311 310 309 319 315 319 325 324 335
312 313 312 312 312 311 311 310 310 311 312 312 312 313 312 316 315 314 316 317 316 317 317 315 314 313 308 309 306 305 305 310 309 309 311 310 310 310 314 320 325 325 324 329 334
312 312 312 312 311 311 310 310 310 311 312 312 313 312 315 317 311 314 317 317 318 316 316 315 315 312 312 310 309 310 310 310 313 310 309 312 313 311 311 317 321 321 325 328 331
313 312 311 311 311 310 310 310 311 312 312 313 313 314 316 315 314 317 317 318 318 316 317 316 313 314 313 313 312 312 311 310 312 312 312 313 312 313 309 310 315 318 324 328 329
313 312 311 310 310 310 310 311 313 313 313 313 314 316 316 313 316 317 318 318 318 318 315 314 314 315 316 315 315 314 313 312 313 310 312 312 313 312 310 309 310 316 324 329 329
313 312 310 310 310 311 312 313 314 314 313 314 315 317 317 314 316 317 318 318 318 317 316 314 315 314 315 317 315 316 315 314 313 314 313 315 313 313 312 309 310 319 320 326 327
313 312 312 312 313 313 313 314 314 314 314 315 315 317 315 316 317 317 316 317 316 317 316 316 315 314 315 317 315 315 316 311 312 312 314 312 312 311 311 309 309 311 319 322 323
313 313 313 314 315 315 315 315 315 315 315 314 318 320 315 317 317 316 315 315 315 317 317 317 317 313 314 314 311 311 309 312 313 313 311 311 312 310 310 310 310 307 313 318 319
314 315 315 316 316 316 315 315 315 315 316 315 318 318 316 317 316 315 315 314 315 317 317 317 315 311 310 309 310 309 312 313 312 312 314 314 312 309 308 309 309 307 306 311 311
315 315 316 316 316 316 316 316 316 316 316 315 316 313 313 314 315 315 315 315 314 314 314 312 309 309 308 310 312 314 312 314 314 313 313 314 312 310 310 309 308 306 305 307 309
316 316 316 318 321 320 320 320 313 312 315 313 313 313 313 314 315 315 313 314 312 310 312 312 311 312 313 312 313 313 313 315 313 313 315 315 313 311 306 306 306 306 306 308 309
315 315 316 321 319 321 321 319 319 319 313 313 312 312 314 314 313 312 314 313 313 312 311 312 313 313 311 312 313 314 315 313 313 313 315 314 314 309 308 308 306 307 308 309 309
314 315 315 319 321 320 322 324 324 323 310 313 313 314 314 314 313 312 312 313 313 312 312 314 314 312 313 312 315 314 314 314 315 313 314 313 314 312 310 309 308 307 308 309 309
314 315 315 317 320 320 319 321 323 323 312 314 314 315 314 313 314 313 314 314 313 313 313 314 311 313 314 315 314 317 313 314 315 317 318 313 317 314 310 312 309 309 308 310 309
313 315 316 319 321 321 320 319 324 320 311 314 314 315 313 313 313 315 314 313 316 316 313 314 313 314 316 315 314 316 315 316 317 317 316 315 313 313 310 312 311 311 309 308 307
314 315 317 321 321 320 319 321 323 315 317 316 315 315 315 313 314 314 314 312 314 315 315 316 312 313 315 314 315 314 316 313 314 314 318 317 315 313 313 312 312 311 311 310 308
318 316 317 320 317 318 321 319 318 316 318 316 316 315 314 314 316 315 315 314 316 313 317 317 317 315 314 316 315 315 313 313 315 315 318 316 315 313 313 311 312 313 312 308 306
317 319 320 321 319 320 321 316 317 318 317 316 315 315 315 314 316 315 316 316 314 315 316 320 315 317 316 316 317 317 315 314 317 315 316 315 317 317 313 311 312 311 309 308 307
319 317 318 319 320 325 314 313 314 315 315 316 316 317 317 318 316 315 316 316 316 315 318 318 319 316 317 316 316 318 317 314 313 303 311 315 316 314 312 313 312 311 309 308 307
323 316 319 320 323 318 312 314 315 314 316 317 318 317 318 319 318 316 317 316 316 316 314 318 321 316 316 316 315 316 314 316 313 315 319 318 317 317 315 314 312 310 308 308 308
326 310 319 323 321 310 311 310 313 315 316 318 319 319 319 320 318 318 318 317 316 316 314 315 315 313 314 316 318 316 315 315 316 314 315 318 318 313 313 312 312 311 309 308 307
313 312 321 320 315 308 312 314 314 316 315 317 316 317 319 318 319 319 320 318 314 316 317 314 311 313 315 313 314 315 316 314 311 314 312 309 316 311 311 311 310 311 310 308 308
315 314 317 315 312 306 314 317 316 317 316 317 317 317 316 317 318 318 318 316 314 316 317 314 311 310 309 310 311 316 316 313 309 309 317 318 314 310 310 311 311 311 309 308 307
310 314 312 311 309 313 316 316 318 316 315 315 317 316 316 316 315 318 319 317 315 316 313 312 312 311 312 311 310 315 316 314 314 316 316 315 315 314 313 310 310 310 308 308 307
308 312 313 311 312 315 315 316 318 317 315 315 317 317 316 315 316 319 318 316 315 314 314 312 316 313 312 313 313 315 315 315 315 314 318 316 314 314 312 309 311 310 309 311 310
314 314 310 312 314 313 310 316 319 317 317 317 317 317 317 317 316 319 318 316 316 315 315 311 311 314 313 311 312 313 313 314 314 314 314 315 315 310 308 311 311 310 310 310 308
314 313 311 305 306 309 310 316 316 315 315 314 315 313 313 316 315 315 313 313 313 315 312 312 306 308 309 309 309 307 309 312 313 312 312 312 310 309 312 310 310 310 308 308 306

GFSSW_925_thetae_015.txt.gz
Theta_e
313 312 311 311 312 311 310 309 310 310 311 311 312 312 312 314 313 313 314 316 315 316 316 315 314 314 310 308 306 305 311 310 310 311 312 310 312 310 312 324 318 321 331 326 336
311 313 313 312 313 311 310 310 310 311 312 311 312 312 313 315 315 314 316 316 316 317 316 315 314 311 311 310 309 311 312 311 310 309 312 311 311 311 315 321 324 326 325 330 336
311 312 312 313 313 311 310 310 310 311 311 312 312 313 316 316 314 315 317 317 316 316 315 315 313 313 314 312 311 312 314 311 312 310 311 313 313 311 316 318 320 321 329 333 336
312 312 312 311 311 311 310 310 311 311 312 312 313 315 316 313 317 317 317 317 318 317 316 315 315 316 315 315 312 315 311 313 313 311 312 313 312 313 312 314 314 320 330 333 334
312 312 311 310 310 310 310 311 312 312 313 313 314 317 315 315 315 317 317 317 317 318 315 315 317 316 317 316 315 315 313 312 312 310 312 312 314 313 313 313 311 319 330 334 334
312 311 310 310 310 310 311 312 313 313 313 314 315 317 315 316 316 315 317 316 316 318 315 315 315 315 317 316 318 316 315 314 314 314 313 315 314 313 313 311 312 319 328 333 334
312 311 310 310 311 312 313 313 313 313 314 315 316 317 314 316 316 315 314 315 316 317 316 315 314 316 316 318 315 313 315 313 313 313 314 312 315 314 312 310 311 314 322 330 332
313 312 312 312 313 314 314 314 314 314 314 316 318 317 316 316 316 316 314 314 316 317 317 316 315 314 315 314 313 313 313 317 314 315 313 314 319 316 310 312 314 313 312 322 328
314 314 314 315 315 315 315 314 314 315 317 316 317 315 316 316 315 315 314 314 315 316 316 316 313 312 313 313 314 314 315 315 316 313 316 317 319 317 313 312 315 312 310 316 322
314 315 315 315 315 315 315 315 315 315 316 314 314 314 314 314 314 314 313 315 313 313 316 315 312 314 314 316 315 316 315 315 316 315 317 317 318 316 310 309 311 310 309 312 317
315 315 315 317 317 316 317 319 312 314 314 312 312 312 312 314 314 313 312 314 312 313 316 314 316 315 314 313 313 314 314 316 315 314 317 317 317 314 311 311 310 310 311 313 314
315 315 319 320 322 321 320 319 315 316 313 311 312 312 313 313 314 314 314 315 314 314 313 316 315 313 312 313 313 314 315 315 315 314 317 317 317 313 312 311 310 312 313 313 313
315 315 317 320 319 321 320 322 323 321 313 313 312 313 313 314 313 314 312 313 312 314 313 316 313 312 313 315 317 316 316 315 316 315 315 315 317 315 312 312 312 311 312 312 313
314 314 315 320 319 317 319 321 323 318 314 314 314 314 313 312 314 314 313 313 315 313 314 313 312 314 316 316 315 318 314 316 317 319 321 315 320 317 313 313 313 312 312 312 312
314 315 317 317 319 319 318 319 325 315 315 314 315 314 312 314 313 316 313 315 316 315 315 313 314 316 318 315 314 319 315 317 317 319 319 319 319 319 314 314 313 313 312 313 311
314 316 321 320 320 319 318 322 320 318 316 315 314 315 315 314 315 314 314 313 313 316 317 316 313 314 315 314 315 315 317 315 315 318 323 318 318 320 317 314 314 314 314 312 311
315 316 317 319 317 318 320 317 320 318 317 316 315 314 314 315 316 315 315 317 318 315 320 317 317 316 314 318 317 318 316 321 325 326 326 317 317 318 315 314 314 314 313 312 312
318 318 319 319 318 320 319 318 319 318 317 314 314 315 316 315 316 316 316 318 316 316 319 321 319 318 317 317 317 318 318 323 321 324 323 316 320 320 314 314 314 313 311 311 311
317 317 318 319 321 321 317 318 316 315 315 316 316 317 317 318 316 316 317 317 316 316 320 321 319 316 317 316 316 319 322 315 317 308 322 320 318 315 314 315 314 312 312 312 311
316 317 319 321 324 316 315 315 314 314 315 316 318 316 318 319 318 317 317 316 316 315 314 318 321 316 316 315 316 318 315 321 321 324 323 320 320 319 316 315 314 313 313 312 311
319 315 319 323 317 312 315 311 313 315 315 317 318 319 318 319 318 318 317 316 315 316 315 314 316 315 314 318 319 319 319 317 318 320 324 322 321 316 316 314 314 313 313 313 313
310 318 318 321 315 308 313 313 313 316 315 316 316 318 318 318 319 319 320 317 313 315 318 315 315 316 315 314 314 316 316 315 318 317 318 319 318 312 314 313 313 313 312 312 312
315 316 315 315 315 309 314 316 315 317 315 316 317 317 316 317 319 318 318 315 314 316 317 314 315 315 311 313 313 318 317 313 313 314 319 320 317 312 312 314 312 313 313 313 312
311 318 314 310 309 314 315 316 318 314 315 315 316 316 316 316 317 319 319 317 315 315 312 314 314 314 315 311 313 315 315 315 317 320 317 318 317 316 315 314 313 312 313 312 311
310 314 312 314 315 314 315 315 317 317 315 315 317 316 316 316 317 319 318 316 314 314 314 315 319 314 314 314 314 315 315 315 317 317 319 317 316 316 315 313 312 312 312 311 311
315 315 309 311 312 314 310 317 318 316 316 317 318 316 316 316 315 318 318 316 316 315 315 311 316 314 315 312 312 313 313 314 315 316 316 316 317 314 311 312 313 311 310 311 310
313 310 312 305 307 312 312 316 316 315 314 314 315 314 312 316 315 314 313 312 314 315 314 314 313 312 314 310 311 313 310 313 314 313 314 315 313 311 312 313 312 311 310 308 304

GFSSW_925_thetae_018.txt.gz
Theta_e
311 314 313 311 311 311 309 309 309 310 311 311 312 312 313 314 313 315 318 316 316 316 316 316 316 316 313 314 314 314 316 316 315 315 315 315 316 316 321 324 324 325 328 329 334
309 311 314 313 313 311 309 310 310 310 311 311 312 312 314 315 317 318 316 316 315 316 317 317 317 315 317 316 317 317 317 315 315 315 316 315 315 316 318 318 320 325 328 332 337
310 311 313 313 311 310 310 310 310 311 311 312 312 313 315 315 319 319 317 317 316 316 317 317 316 318 317 318 318 317 316 316 315 315 316 316 315 315 316 317 318 319 326 334 336
311 312 312 311 311 311 310 310 310 311 311 312 313 315 316 315 318 318 317 317 317 316 317 319 319 318 318 317 317 315 316 315 314 315 316 316 316 316 317 317 318 320 325 331 335
312 312 312 311 311 311 310 310 311 312 312 313 314 316 316 320 319 316 317 317 318 318 319 320 319 319 317 318 318 319 318 318 316 315 316 316 317 318 317 317 316 322 328 329 330
312 312 311 310 311 310 310 311 312 313 313 314 315 316 320 319 317 315 316 316 318 320 320 320 321 320 320 320 321 320 319 319 318 318 317 318 319 318 317 317 317 320 325 328 328
312 311 310 310 310 310 311 313 313 313 314 315 316 317 319 318 316 316 315 316 316 319 321 318 319 321 322 322 320 319 320 320 319 319 319 317 319 318 317 316 317 318 321 326 327
311 311 310 310 311 312 313 313 313 314 314 317 317 317 318 316 316 316 315 316 317 318 319 318 318 319 321 318 318 319 319 320 319 320 319 320 321 319 319 319 318 319 319 324 327
313 313 313 313 313 314 314 314 314 314 315 316 319 320 318 316 316 315 314 317 317 318 317 316 318 319 318 320 319 318 317 317 319 318 320 320 321 321 318 316 319 320 319 320 325
314 314 315 315 315 314 314 314 315 316 315 314 315 318 317 317 315 314 314 316 318 319 320 320 320 320 319 318 316 318 317 318 318 319 319 319 320 319 317 316 318 319 319 318 323
315 315 315 315 315 315 315 318 319 319 316 317 316 316 316 316 315 316 314 317 318 320 320 319 320 320 319 319 318 318 318 319 318 318 320 321 321 318 317 318 318 318 318 319 323
315 316 319 321 317 317 319 321 321 318 317 315 315 316 315 315 318 318 317 319 319 319 319 319 320 317 318 318 318 319 319 319 319 318 320 321 320 317 318 317 318 319 319 320 319
314 316 319 321 320 321 325 325 322 318 318 317 316 317 316 318 319 319 318 318 318 318 319 319 317 316 318 320 321 321 320 321 321 320 320 321 322 319 317 318 318 318 318 318 318
314 314 315 320 320 319 323 321 322 317 318 317 317 317 317 316 318 317 316 317 318 318 318 318 317 319 320 320 321 321 319 321 321 322 322 321 324 320 318 318 318 317 318 318 317
314 316 316 318 321 321 321 321 325 321 321 317 317 316 318 318 317 319 316 319 319 319 319 317 319 320 321 319 320 322 320 321 322 323 323 323 323 322 319 318 318 318 318 318 317
314 321 320 320 320 319 318 322 324 326 320 318 318 318 320 319 318 318 319 318 318 320 319 319 318 320 320 319 318 320 321 321 322 325 327 323 323 324 321 318 318 319 319 319 318
315 317 319 317 323 319 319 325 323 323 319 318 319 319 320 320 320 319 321 321 321 322 322 320 320 320 320 320 321 322 323 325 329 329 328 321 323 323 319 318 318 318 318 318 318
316 318 318 317 318 320 323 327 322 321 320 317 318 319 320 320 320 320 320 321 320 320 321 322 323 322 320 321 322 322 323 327 326 326 325 321 322 323 318 317 317 317 317 317 317
318 318 320 320 321 319 326 328 325 321 319 318 319 320 321 320 320 321 321 321 320 320 323 322 322 319 319 319 320 322 325 320 324 319 328 322 321 320 318 318 317 316 316 316 316
318 321 323 321 323 322 327 320 319 317 318 319 321 320 322 322 322 321 321 319 319 319 319 321 323 318 319 319 320 322 320 325 323 332 320 318 320 320 321 320 317 317 316 316 316
318 322 321 323 316 323 327 321 318 317 319 321 321 322 322 322 322 322 321 319 319 319 319 318 320 319 319 321 322 322 323 321 321 323 323 321 317 321 319 318 317 317 316 316 316
320 324 318 319 324 320 322 319 316 320 319 321 321 322 322 322 323 323 322 321 318 319 320 319 320 317 316 318 318 319 320 319 318 318 321 322 319 316 317 317 316 316 315 315 315
324 324 317 319 330 327 320 320 319 320 319 320 322 321 321 322 324 322 321 319 318 320 321 320 320 317 316 318 318 321 319 318 318 318 321 324 320 315 316 316 316 316 315 315 314
323 333 324 319 318 322 322 321 321 318 320 320 320 320 322 322 321 323 322 320 319 319 312 316 320 317 314 314 315 316 315 315 317 321 319 319 318 317 316 315 316 315 315 314 313
322 325 321 328 323 322 321 321 321 321 320 320 321 321 322 323 322 323 322 320 318 315 319 320 319 318 317 316 316 317 316 316 317 318 319 319 317 316 315 315 315 315 314 313 313
324 324 319 320 320 321 319 322 321 320 320 321 321 320 319 319 317 320 318 318 317 319 320 318 320 317 317 316 315 317 316 316 316 317 317 317 317 315 313 314 315 314 313 312 312
315 314 323 312 319 324 322 321 320 320 319 320 321 320 321 319 319 319 319 318 318 318 320 320 320 319 323 315 316 321 316 316 316 315 316 317 315 314 314 314 314 313 312 311 309

GFSSW_925_thetae_021.txt.gz
Theta_e
309 310 312 314 313 312 311 309 309 309 310 311 311 312 312 313 313 316 321 317 317 316 316 319 318 319 317 317 318 319 319 319 318 318 317 317 317 317 319 322 322 322 327 328 331
310 310 311 313 313 311 310 309 309 310 311 311 311 312 313 315 319 320 317 317 316 316 319 319 319 318 319 318 319 319 319 317 317 318 317 317 317 317 319 319 320 323 324 330 332
309 310 311 311 311 310 310 310 310 310 311 311 312 313 314 316 324 320 317 317 316 316 320 319 317 319 319 319 319 319 318 317 316 317 317 316 316 316 317 318 320 321 323 330 331
310 311 312 312 311 310 310 310 310 311 311 312 312 314 316 322 320 319 317 317 317 320 319 319 320 319 319 319 319 317 317 317 316 316 317 316 317 317 317 318 319 320 324 328 331
311 312 312 312 311 311 311 310 310 311 311 312 314 315 318 324 319 318 317 318 320 320 320 320 319 319 318 317 318 318 317 316 316 316 317 317 317 318 317 318 318 321 324 328 330
312 312 312 311 311 311 310 310 311 311 312 313 315 316 322 321 318 318 317 318 320 320 319 319 320 320 318 319 320 320 320 320 319 319 319 319 319 319 319 318 318 320 323 326 327
312 312 311 311 310 310 310 311 312 312 313 314 316 319 324 320 318 317 317 318 319 320 320 320 320 320 321 321 321 321 321 321 321 321 321 320 319 319 320 319 319 319 321 324 326
312 311 310 310 310 310 311 312 313 313 314 316 317 322 322 318 318 317 317 318 319 321 321 320 320 322 322 322 320 320 321 322 321 321 321 321 323 320 321 321 320 321 321 322 325
312 311 310 310 311 312 313 313 313 314 314 317 320 326 319 316 318 316 317 319 320 321 320 319 321 322 322 322 321 320 322 319 321 320 321 321 322 322 322 321 320 321 321 321 323
313 313 313 313 313 313 314 314 314 316 315 318 320 320 317 318 316 316 317 319 321 322 322 322 322 322 321 321 321 320 318 318 319 321 319 320 320 322 320 320 321 321 322 321 322
314 314 314 314 314 314 314 318 320 323 319 319 318 318 317 317 317 318 318 319 320 322 323 321 323 322 320 319 319 318 319 320 320 320 320 321 321 320 321 322 322 322 322 321 323
315 315 315 315 315 315 321 325 324 322 318 317 318 319 318 318 318 319 319 321 321 321 320 319 322 320 320 320 320 321 321 321 321 320 321 322 322 320 320 321 322 322 323 324 323
315 318 319 320 317 320 326 326 325 323 319 318 318 318 318 319 320 320 320 319 319 318 318 322 320 319 320 321 321 323 322 323 322 322 322 322 323 320 320 320 320 321 321 321 321
314 315 319 320 322 325 325 325 327 324 321 317 318 318 318 319 320 319 319 320 319 318 319 320 320 320 321 322 322 323 321 322 322 322 324 323 325 322 321 320 320 320 321 320 320
314 315 317 318 323 322 325 326 329 329 325 318 319 319 319 320 320 320 320 320 320 320 321 321 321 322 323 322 321 323 322 322 323 324 324 323 323 324 321 321 321 321 321 320 320
317 319 317 319 327 325 325 328 330 331 323 319 319 320 321 321 320 321 321 321 321 321 321 321 320 322 322 321 321 322 324 323 325 326 327 326 324 326 323 322 321 321 321 321 320
316 320 321 323 324 325 327 329 322 328 320 319 320 321 321 321 321 322 322 323 324 324 324 322 322 322 321 323 323 324 325 329 331 330 330 324 322 326 322 321 321 321 320 320 320
315 319 320 326 325 323 327 325 328 323 320 320 320 321 322 322 322 322 322 323 322 323 322 324 327 322 321 322 323 324 325 330 328 328 326 323 321 326 321 320 319 319 319 319 319
318 326 326 325 325 325 325 329 325 321 320 320 320 321 321 321 322 323 323 322 321 322 325 324 325 321 321 322 322 324 326 322 327 325 328 322 323 323 321 320 319 319 319 319 318
320 320 323 320 321 327 329 324 322 320 320 320 322 322 323 322 323 324 323 321 321 320 321 322 326 320 320 321 322 323 322 327 325 329 322 319 319 321 323 321 321 319 318 318 318
320 321 326 322 323 325 329 324 321 320 321 322 322 322 323 323 323 324 323 321 321 321 320 319 321 321 319 322 321 323 324 323 321 322 324 321 319 320 320 319 319 317 318 318 317
322 325 324 324 323 325 326 322 317 321 322 322 323 323 324 323 324 324 324 324 320 321 322 320 321 320 317 319 320 320 321 321 321 318 321 323 321 318 318 318 317 318 317 317 316
323 325 324 325 332 331 323 322 322 322 322 323 324 323 324 324 325 324 323 321 320 322 323 321 323 321 319 321 321 320 320 319 318 319 318 328 322 317 318 318 317 317 317 316 315
324 331 324 326 324 323 324 323 323 322 322 322 323 323 324 324 324 325 324 322 321 322 313 318 320 319 320 318 316 317 316 316 317 321 322 321 319 318 317 317 316 316 316 316 315
324 327 325 328 327 324 324 323 323 322 322 322 323 323 323 324 324 324 323 323 321 316 320 321 322 319 319 317 316 316 316 316 317 317 320 319 319 318 317 316 316 316 315 315 314
323 326 324 326 324 324 320 323 322 322 322 322 323 322 321 323 319 322 320 319 319 320 321 319 322 320 319 317 315 316 315 316 316 317 318 317 318 317 316 315 316 315 314 314 313
321 322 326 317 325 325 324 323 322 322 322 321 322 321 323 320 321 322 321 319 319 320 321 321 322 320 322 318 319 324 318 316 316 316 317 318 317 316 316 316 315 314 313 314 311

GFSSW_925_thetae_024.txt.gz
Theta_e
310 309 310 310 312 314 310 309 309 309 309 310 311 311 312 312 313 315 320 319 317 317 316 317 319 319 319 318 318 319 321 322 321 323 318 318 318 318 320 322 322 325 327 331 331
310 310 310 310 311 313 310 309 309 309 310 311 311 311 312 313 317 322 319 318 317 316 317 319 320 320 319 319 319 318 320 318 318 318 317 317 317 317 319 320 320 326 329 331 329
310 310 310 310 311 312 310 310 309 310 310 311 311 312 312 315 324 321 317 318 317 317 320 322 319 318 318 319 319 319 318 317 316 317 317 316 316 317 319 318 321 322 330 330 329
310 310 310 311 312 311 311 310 310 310 311 311 311 312 314 319 323 319 317 318 318 318 322 320 319 319 319 318 319 318 317 316 316 317 317 316 316 316 318 319 320 322 324 330 329
310 310 311 312 312 311 310 310 310 311 311 311 312 314 318 325 321 318 318 319 320 320 321 321 320 320 319 318 318 317 316 316 316 316 317 317 317 317 317 318 319 323 325 329 329
311 311 312 312 312 311 311 310 310 311 311 312 313 315 323 323 318 319 318 319 320 320 320 320 320 320 318 318 318 318 318 318 317 318 318 317 319 318 318 318 318 321 324 327 329
312 312 312 312 311 311 310 310 311 311 312 313 314 317 325 322 318 318 318 319 319 320 321 320 320 319 320 321 320 320 320 320 320 320 319 319 319 318 319 319 318 319 322 325 326
312 312 311 311 310 310 310 311 311 312 313 315 316 321 324 319 318 318 317 318 319 320 321 320 320 322 323 321 319 319 321 321 321 321 321 320 321 320 320 319 319 320 320 321 325
312 311 310 310 310 310 311 312 313 313 314 316 318 325 324 317 317 317 317 319 319 320 321 319 321 321 321 320 320 320 321 322 322 320 322 321 322 321 321 321 321 321 321 321 322
312 312 311 310 311 312 312 313 314 315 316 320 322 324 319 318 317 317 317 319 320 322 321 321 322 321 321 322 322 321 319 319 319 321 318 318 320 322 321 321 321 321 321 322 322
314 313 313 313 313 313 314 316 321 322 321 320 318 320 317 316 316 318 318 320 321 322 323 321 322 322 320 319 318 319 319 319 320 320 319 319 320 321 321 322 322 322 323 324 325
314 314 314 314 314 314 317 325 325 323 320 319 319 319 318 319 318 319 319 321 321 322 322 319 321 321 320 319 320 320 321 321 321 320 319 321 322 321 321 322 322 323 324 325 323
315 316 316 315 315 315 323 327 326 327 319 318 319 318 319 320 320 319 320 320 320 321 318 323 321 319 320 321 321 322 321 324 322 321 321 321 322 321 321 321 321 322 323 322 321
315 317 320 318 318 324 326 325 327 325 320 316 318 317 319 320 319 319 319 321 319 319 319 322 320 320 321 322 322 322 323 323 321 322 322 322 323 322 321 321 321 321 321 321 320
314 315 319 319 326 323 326 326 328 329 328 319 318 319 318 321 320 320 319 319 320 320 320 322 321 322 323 323 321 323 322 322 322 323 323 323 325 325 322 321 321 322 321 321 321
316 317 317 319 329 326 327 329 330 335 329 319 319 320 319 320 321 321 320 321 322 320 322 321 321 322 322 321 321 321 324 324 324 325 333 324 324 325 322 322 322 322 322 321 321
319 318 322 327 329 326 329 329 323 331 320 319 320 321 321 321 321 322 322 323 324 324 324 322 322 323 321 323 324 324 325 335 337 337 336 326 324 327 323 323 323 322 321 321 321
317 318 324 328 327 323 329 327 330 323 320 319 320 321 322 321 322 322 323 323 322 325 324 324 327 323 322 322 323 324 323 337 332 335 330 324 322 325 322 321 320 320 320 320 320
317 326 328 328 328 327 329 332 327 321 321 320 320 321 322 322 323 323 324 322 322 324 326 324 325 321 321 321 321 323 327 321 325 327 330 320 326 323 321 321 320 320 319 320 319
322 323 324 321 325 329 332 331 325 322 320 320 321 322 322 321 323 324 323 322 321 321 321 321 327 320 320 320 323 321 320 327 333 332 325 319 320 326 322 322 321 320 318 318 318
326 322 329 318 323 325 332 330 322 320 321 321 322 321 323 322 323 324 324 322 322 321 321 320 322 322 319 322 319 321 323 323 321 326 327 326 320 319 320 320 320 318 318 318 318
326 323 327 321 322 324 328 324 317 321 323 323 323 322 324 323 324 324 324 325 321 321 322 318 321 327 319 318 319 319 320 321 331 324 328 327 321 318 318 319 318 318 318 317 316
323 329 326 327 330 337 325 323 322 321 321 322 324 324 324 324 326 324 325 322 321 323 324 321 326 328 322 322 321 318 319 319 320 323 322 325 321 319 318 319 318 317 316 317 316
328 331 323 324 328 325 326 324 324 323 323 323 323 323 324 325 324 325 325 323 322 321 314 320 322 320 324 319 317 317 316 317 317 326 323 322 319 318 318 318 317 316 317 316 315
328 327 322 327 327 325 323 323 324 324 323 322 323 323 324 325 324 325 324 323 321 316 320 322 323 321 319 316 316 316 316 316 317 317 319 319 317 317 318 317 317 316 315 315 314
328 326 326 326 325 325 322 324 324 322 323 322 323 323 324 326 323 324 323 321 321 320 321 320 325 323 321 316 315 316 316 316 316 316 316 317 318 317 317 316 316 316 315 314 314
324 325 326 322 326 328 327 324 323 323 323 323 323 323 326 324 323 321 321 320 320 322 321 323 327 324 325 319 320 326 321 316 316 316 317 319 318 316 317 316 315 314 314 313 311